Temp
79 78 78 78 78 78 77 77 77 77 77 77 77 77 77 77 77 76 76 75 75 75 73 72 72 72 72 71 71 70 71 70 69 69 68 67 68 67 66 65 67 66 65 66 66 67 69 68 68 67 65 67 66 66 65 66 67 68 66 66 66 66 65
78 78 78 78 78 78 77 77 78 78 77 78 77 77 78 77 77 77 76 76 76 76 74 73 73 73 73 72 71 70 70 70 70 71 69 68 70 67 68 66 67 66 65 66 66 67 67 67 67 66 66 67 67 65 66 65 66 65 65 65 65 64 64
77 78 78 78 78 77 77 77 77 78 78 79 78 78 77 77 78 77 77 76 75 76 74 73 74 73 74 73 71 70 70 69 69 70 68 69 67 67 67 67 67 67 67 66 67 68 67 67 65 65 66 67 67 66 65 65 66 66 65 65 65 66 65
77 78 78 78 78 78 78 78 78 79 80 80 79 79 78 78 78 78 78 77 76 76 74 74 74 74 74 72 71 70 70 70 70 70 70 69 68 67 67 66 66 67 66 66 68 68 69 67 66 65 70 66 66 65 65 65 65 65 65 64 65 65 65
77 78 78 77 77 77 77 77 78 78 80 81 80 80 79 79 79 79 78 78 78 77 77 76 76 76 74 74 73 71 71 70 70 70 70 69 69 67 68 67 66 66 68 67 66 68 66 66 65 65 65 66 65 65 65 65 65 65 64 63 65 65 65
76 77 77 78 78 78 77 78 79 80 80 80 80 79 80 80 80 79 79 78 78 78 77 76 75 75 74 74 74 72 71 70 70 70 69 69 68 67 68 68 67 67 66 67 67 66 66 65 66 65 65 65 66 65 64 64 64 64 65 63 65 65 66
77 77 77 78 78 78 78 79 80 80 81 81 81 81 81 81 80 80 80 78 78 77 76 76 76 75 74 74 73 73 71 70 70 69 70 69 68 68 67 67 69 68 68 67 66 66 66 66 65 65 66 65 66 65 64 64 65 65 64 63 64 64 64
79 78 78 78 79 80 79 79 80 81 81 81 81 81 80 81 81 80 79 80 79 79 78 77 76 75 74 74 74 73 72 72 71 70 69 69 68 68 67 67 68 68 67 67 67 66 67 66 66 66 65 65 64 64 64 64 64 65 63 64 63 63 65
79 79 79 80 80 80 80 79 79 80 80 79 80 80 80 80 80 80 80 80 79 79 78 79 78 76 75 74 73 73 73 72 71 69 69 69 67 68 68 68 68 68 68 67 67 66 67 67 66 66 65 64 65 64 64 64 64 65 64 63 63 63 64
77 77 78 80 81 81 80 79 79 78 78 78 78 78 79 80 80 81 80 80 80 79 79 79 79 77 75 74 74 74 73 71 70 69 69 69 68 68 69 69 69 68 68 68 66 66 67 66 66 66 65 65 64 64 64 65 65 65 63 64 63 63 64
76 76 76 77 78 78 77 77 76 77 78 78 78 79 79 79 80 80 80 80 80 80 80 80 79 77 75 75 74 74 72 70 67 67 68 70 69 70 71 71 70 69 68 67 66 66 66 67 65 65 64 66 65 65 64 65 65 64 64 64 63 64 64
73 74 74 76 77 76 75 76 77 77 77 78 78 79 78 78 79 80 80 80 81 80 80 80 79 78 76 75 74 73 70 67 68 68 69 70 70 71 72 72 70 69 69 68 68 66 66 66 65 67 65 65 65 65 65 64 64 64 64 64 63 63 63
73 73 74 76 76 76 75 74 75 76 77 78 78 78 79 79 79 80 79 80 81 81 80 79 79 77 76 75 75 70 67 67 68 68 69 70 72 72 71 71 72 71 70 69 69 68 66 65 65 66 66 65 65 65 65 65 64 63 63 63 63 63 63
73 72 74 75 75 75 74 74 75 76 77 78 78 79 79 79 80 79 79 79 80 80 80 80 78 76 75 74 72 67 66 67 68 68 70 72 71 71 71 71 70 70 70 69 68 68 67 66 66 66 65 65 65 66 65 64 63 63 63 63 63 63 63
70 72 73 74 74 74 74 75 74 75 76 77 78 78 78 79 79 79 79 80 79 80 79 79 77 75 74 71 67 66 67 67 69 70 70 71 70 70 70 70 70 69 69 68 68 69 68 68 67 65 64 64 65 65 65 65 65 64 64 63 63 63 63
72 72 73 73 73 74 74 75 75 75 76 76 77 77 78 77 77 78 78 78 79 78 79 77 76 74 70 66 66 67 68 68 69 69 69 69 70 70 70 70 69 69 68 68 68 68 68 66 66 66 66 66 65 64 65 65 65 67 66 67 66 64 64
72 73 73 73 72 73 73 74 75 75 75 75 76 77 77 77 78 78 79 79 79 78 78 77 74 68 66 67 68 68 69 69 68 69 69 69 70 70 70 69 69 68 68 67 67 67 67 67 66 66 67 67 67 66 66 66 67 66 64 65 67 67 64
71 71 71 71 71 71 71 71 71 72 73 74 75 76 77 77 77 77 77 78 78 79 78 75 69 66 67 68 68 68 69 67 68 68 68 68 69 70 70 69 68 67 67 67 66 67 67 66 67 67 67 67 67 67 67 66 66 64 64 65 65 67 66
72 71 71 70 69 69 70 72 72 71 71 72 74 75 77 77 77 76 77 77 78 77 75 71 68 67 67 67 68 68 67 67 68 67 68 69 70 70 69 69 68 67 67 67 68 67 66 67 67 66 66 66 66 66 67 67 66 64 64 64 64 65 66
70 69 68 68 69 70 70 69 70 71 73 73 74 77 78 77 77 77 77 77 74 74 71 68 67 67 67 67 67 67 67 67 68 68 68 69 70 70 69 69 68 69 69 69 68 67 67 67 67 67 65 65 66 66 67 66 65 64 62 62 63 63 64
66 66 68 69 68 69 70 71 72 72 71 72 74 74 74 75 76 75 76 74 73 71 70 69 68 67 67 67 67 67 67 68 68 68 68 69 69 69 69 69 69 69 69 69 68 68 67 67 67 67 67 66 66 66 67 68 64 62 61 60 60 61 63
69 70 70 70 70 69 67 68 69 70 71 72 71 72 74 76 76 76 73 73 71 70 69 68 67 67 67 67 67 68 69 68 68 68 69 69 69 69 69 69 69 69 69 69 69 68 67 67 67 67 67 67 65 64 65 67 63 62 61 60 59 61 63
74 72 74 71 71 71 70 69 69 69 69 69 71 72 74 74 75 73 72 71 70 70 69 68 67 67 67 67 68 68 69 69 68 68 69 69 69 69 70 70 70 70 70 68 68 67 66 67 67 67 66 64 64 64 65 66 64 60 59 58 59 59 60
74 73 70 69 67 68 66 66 68 69 71 70 71 73 73 73 74 71 70 69 68 69 68 68 67 68 68 67 68 69 70 69 69 68 69 69 69 70 71 71 72 71 70 69 68 67 68 67 65 64 64 64 64 66 65 66 64 60 57 56 57 59 59
74 73 72 74 74 74 69 68 69 70 70 70 71 70 71 72 72 70 68 67 68 69 68 67 67 68 68 69 69 69 70 70 68 68 70 70 70 71 71 71 71 72 69 69 68 69 67 66 65 63 62 65 66 68 67 65 63 58 55 55 55 59 58
69 69 69 67 69 70 69 68 70 67 68 70 70 69 71 71 70 69 68 67 68 68 68 69 69 70 70 69 68 69 70 68 68 69 70 70 71 72 72 72 71 69 67 66 66 66 63 65 64 63 63 63 65 65 65 64 63 60 53 53 53 57 58
69 69 70 69 69 71 68 67 69 71 72 72 69 69 71 71 69 68 68 67 67 68 70 71 71 70 70 69 69 69 69 68 69 70 71 72 71 71 70 69 67 65 65 65 64 63 63 63 63 63 61 61 62 63 62 63 60 56 52 51 52 55 57
68 67 67 68 68 66 65 66 66 67 68 67 68 70 71 71 70 69 67 67 67 70 72 70 69 69 69 69 68 68 68 69 69 68 68 69 69 66 66 64 65 65 64 63 62 63 63 62 62 61 60 61 60 61 59 62 62 56 53 51 50 51 53
68 69 67 66 67 66 66 64 65 66 66 66 68 69 70 70 70 68 68 67 69 71 70 69 68 68 68 67 67 67 68 68 67 67 69 68 66 64 64 62 63 63 63 62 62 63 63 61 60 60 59 60 56 57 56 56 59 57 56 51 49 49 51
64 65 66 68 68 66 66 64 64 64 64 65 66 66 68 70 70 69 67 69 68 69 68 68 67 68 67 67 67 67 66 66 66 68 67 65 64 64 63 62 63 62 62 62 63 62 61 59 58 57 57 58 57 57 57 57 57 57 56 54 49 47 47
64 64 64 64 65 65 63 63 62 62 63 64 65 65 65 65 66 67 66 65 67 66 67 67 67 66 66 66 66 65 64 66 65 65 64 65 64 63 64 63 63 62 62 62 62 60 59 58 58 57 58 57 58 56 56 58 57 56 56 54 51 49 47
63 62 63 64 63 66 64 63 63 63 63 64 64 64 64 64 64 64 64 63 66 66 66 66 66 65 64 65 65 64 65 64 63 63 63 63 64 65 64 65 64 64 62 61 61 60 60 58 57 57 57 56 56 55 56 57 56 54 54 58 57 54 52
61 61 62 62 63 67 64 65 64 64 64 63 63 64 65 64 64 63 64 65 65 66 65 66 66 65 65 63 62 62 63 62 61 62 63 63 63 64 64 64 64 64 62 61 61 60 59 60 59 58 57 56 55 55 56 57 55 53 51 49 49 51 52
62 62 62 62 64 64 63 63 63 63 63 62 62 63 64 65 65 65 66 67 69 68 66 66 66 64 63 62 62 62 62 62 67 63 59 60 63 63 62 61 61 63 62 61 61 60 58 59 59 58 58 56 55 56 57 56 54 52 51 48 49 48 47
63 61 61 63 64 64 62 62 62 61 62 62 62 64 65 66 67 68 67 67 67 67 66 66 66 64 63 63 63 63 64 63 64 60 57 54 51 49 48 50 53 55 52 50 50 55 61 61 60 59 57 58 57 56 56 56 54 55 51 51 48 48 48
64 63 63 63 63 63 63 62 62 62 62 61 64 65 66 65 66 68 69 68 67 67 65 64 63 63 63 64 63 63 62 60 58 57 57 56 54 53 51 47 42 45 52 52 53 48 46 52 56 56 55 52 50 53 55 55 53 46 41 40 40 40 41
64 64 64 63 63 61 61 61 63 63 63 63 65 65 66 66 66 66 68 67 67 66 64 64 62 62 62 63 63 62 60 59 58 57 56 56 55 54 52 50 48 41 41 45 47 45 42 44 46 49 52 54 49 47 47 47 43 40 40 40 39 40 39
63 63 64 63 63 62 62 62 63 63 63 64 65 65 65 65 65 65 66 67 67 66 64 63 61 60 60 62 63 63 62 59 59 59 59 57 56 55 54 53 51 50 44 41 41 42 41 41 42 43 46 49 50 48 47 44 41 41 41 40 40 40 39
MSLP
1007.41 1007.97 1008.21 1008.33 1008.69 1008.85 1009.09 1009.25 1009.37 1009.69 1009.89 1010.13 1010.21 1010.33 1010.49 1010.69 1010.85 1011.17 1011.45 1011.69 1011.97 1012.21 1012.29 1012.49 1012.69 1012.89 1012.97 1013.05 1013.17 1013.33 1013.41 1013.65 1013.97 1014.25 1014.57 1014.69 1014.77 1015.09 1015.45 1015.65 1015.73 1015.89 1016.05 1016.21 1016.33 1016.37 1016.37 1016.41 1016.49 1016.53 1016.61 1016.69 1016.77 1016.85 1016.93 1017.01 1017.09 1017.09 1017.09 1017.13 1017.21 1017.29 1017.33
1007.45 1007.57 1007.77 1007.89 1008.17 1008.37 1008.49 1008.61 1008.89 1009.21 1009.53 1009.61 1009.69 1009.81 1009.97 1010.25 1010.45 1010.77 1010.85 1011.01 1011.25 1011.45 1011.73 1012.05 1012.25 1012.41 1012.41 1012.61 1012.81 1013.01 1013.21 1013.33 1013.53 1013.73 1014.09 1014.33 1014.49 1014.65 1014.81 1015.17 1015.33 1015.61 1015.77 1015.85 1016.01 1016.13 1016.21 1016.29 1016.29 1016.41 1016.53 1016.53 1016.61 1016.73 1016.81 1016.89 1016.97 1017.05 1017.09 1017.09 1017.21 1017.25 1017.29
1006.97 1007.05 1007.25 1007.45 1007.69 1007.93 1008.21 1008.53 1008.77 1008.81 1008.93 1009.17 1009.41 1009.69 1009.77 1009.73 1009.69 1009.81 1010.13 1010.61 1010.97 1011.17 1011.41 1011.61 1011.65 1011.81 1011.93 1012.17 1012.61 1012.77 1012.77 1013.01 1013.29 1013.53 1013.77 1014.01 1014.29 1014.49 1014.77 1014.89 1015.09 1015.29 1015.49 1015.65 1015.81 1016.01 1016.09 1016.21 1016.29 1016.33 1016.37 1016.49 1016.57 1016.69 1016.77 1016.85 1016.89 1016.97 1017.01 1017.05 1017.17 1017.21 1017.25
1006.49 1006.57 1006.53 1006.53 1006.77 1007.05 1007.41 1007.69 1008.01 1008.21 1008.29 1008.45 1008.73 1008.85 1008.97 1009.09 1008.97 1009.13 1009.45 1009.73 1010.25 1010.65 1010.97 1010.93 1011.13 1011.41 1011.61 1011.93 1012.21 1012.41 1012.57 1012.61 1012.73 1013.09 1013.33 1013.69 1014.05 1014.37 1014.69 1014.93 1015.05 1015.17 1015.45 1015.61 1015.65 1015.81 1015.97 1016.13 1016.25 1016.29 1016.29 1016.41 1016.53 1016.61 1016.73 1016.81 1016.85 1016.93 1016.93 1017.01 1017.13 1017.09 1017.09
1005.97 1005.89 1006.29 1006.77 1007.01 1007.37 1007.61 1007.81 1007.93 1007.97 1007.97 1007.89 1008.01 1008.09 1008.17 1008.25 1008.61 1008.97 1009.29 1009.41 1009.69 1009.89 1009.81 1010.13 1010.53 1010.85 1011.17 1011.41 1011.65 1011.89 1012.05 1012.25 1012.57 1012.81 1013.09 1013.49 1013.81 1014.25 1014.57 1014.85 1015.01 1015.13 1015.17 1015.33 1015.53 1015.73 1015.93 1016.09 1016.17 1016.21 1016.29 1016.33 1016.41 1016.53 1016.65 1016.69 1016.77 1016.85 1016.93 1017.01 1017.05 1017.01 1017.01
1005.81 1006.01 1006.13 1006.29 1006.57 1006.81 1006.93 1007.05 1007.13 1007.29 1007.45 1007.73 1007.85 1008.05 1008.13 1008.37 1008.61 1008.93 1008.89 1009.17 1009.37 1009.49 1009.93 1010.41 1010.65 1010.69 1011.01 1011.09 1011.25 1011.57 1011.77 1012.01 1012.17 1012.57 1012.93 1013.41 1013.81 1014.29 1014.53 1014.69 1014.89 1014.97 1015.13 1015.21 1015.37 1015.61 1015.73 1015.93 1016.05 1016.13 1016.21 1016.21 1016.25 1016.41 1016.49 1016.61 1016.69 1016.77 1016.81 1016.93 1016.97 1016.89 1016.89
1005.13 1005.29 1005.57 1005.73 1005.93 1006.17 1006.41 1006.53 1006.61 1006.69 1006.69 1006.77 1006.81 1007.05 1007.53 1008.05 1008.29 1008.25 1008.45 1008.89 1009.09 1009.53 1009.73 1010.01 1010.13 1010.41 1010.61 1010.81 1011.05 1011.25 1011.61 1011.97 1012.25 1012.65 1012.89 1013.41 1013.77 1014.13 1014.45 1014.57 1014.65 1014.77 1014.73 1014.93 1015.25 1015.37 1015.65 1015.85 1015.93 1015.97 1015.97 1016.01 1016.09 1016.17 1016.33 1016.45 1016.53 1016.53 1016.69 1016.85 1016.85 1016.81 1016.81
1004.25 1004.81 1004.77 1004.89 1005.13 1005.33 1005.69 1005.97 1006.09 1006.17 1006.41 1006.57 1007.09 1007.53 1007.85 1007.77 1007.93 1008.25 1008.53 1008.49 1008.69 1009.09 1009.45 1009.65 1009.93 1010.01 1010.21 1010.45 1010.61 1010.85 1011.21 1011.73 1012.17 1012.61 1013.01 1013.45 1013.89 1014.17 1014.37 1014.49 1014.53 1014.49 1014.61 1014.85 1014.93 1015.13 1015.33 1015.57 1015.65 1015.73 1015.77 1015.81 1015.85 1015.97 1016.05 1016.21 1016.33 1016.37 1016.57 1016.69 1016.73 1016.69 1016.61
1003.65 1003.65 1003.97 1004.33 1004.57 1004.81 1005.09 1005.37 1005.61 1005.89 1006.17 1006.49 1006.73 1006.85 1007.05 1007.37 1007.61 1007.77 1007.85 1008.05 1008.37 1008.73 1008.81 1008.77 1008.93 1009.29 1009.81 1010.21 1010.45 1010.65 1010.93 1011.57 1012.29 1012.85 1013.37 1013.85 1014.33 1014.57 1014.65 1014.61 1014.45 1014.37 1014.49 1014.65 1014.77 1014.89 1015.05 1015.17 1015.37 1015.45 1015.53 1015.57 1015.61 1015.73 1015.85 1015.97 1016.09 1016.17 1016.37 1016.41 1016.45 1016.41 1016.33
1003.65 1003.89 1003.89 1003.81 1003.89 1004.17 1004.61 1005.05 1005.41 1005.93 1006.33 1006.53 1006.65 1006.89 1007.05 1007.01 1007.05 1007.17 1007.45 1007.69 1007.97 1008.25 1008.25 1008.45 1008.77 1009.17 1009.57 1009.93 1010.21 1010.45 1011.01 1011.77 1012.69 1013.61 1014.25 1014.69 1014.89 1014.97 1014.85 1014.57 1014.41 1014.29 1014.29 1014.33 1014.49 1014.65 1014.77 1014.89 1015.05 1015.21 1015.29 1015.33 1015.41 1015.49 1015.61 1015.73 1015.89 1015.93 1016.05 1016.09 1016.13 1016.13 1016.05
1003.41 1003.57 1003.85 1004.05 1004.09 1004.17 1004.57 1005.17 1005.65 1005.77 1005.81 1006.01 1006.13 1006.21 1006.37 1006.61 1006.77 1006.93 1007.09 1007.21 1007.49 1007.53 1007.53 1007.89 1008.21 1008.85 1009.29 1009.61 1010.09 1010.57 1011.29 1012.57 1013.41 1014.09 1014.05 1014.01 1014.37 1014.29 1014.21 1014.25 1014.17 1014.13 1014.09 1014.17 1014.29 1014.33 1014.53 1014.73 1014.89 1015.01 1015.09 1015.13 1015.13 1015.25 1015.41 1015.49 1015.57 1015.69 1015.73 1015.77 1015.73 1015.73 1015.65
1003.45 1003.73 1003.89 1003.81 1003.81 1004.25 1004.69 1004.61 1004.73 1005.05 1005.25 1005.41 1005.53 1005.73 1005.93 1006.09 1006.21 1006.37 1006.49 1006.57 1006.49 1006.85 1007.21 1007.53 1007.85 1008.29 1008.89 1009.41 1010.09 1010.81 1012.13 1012.85 1013.61 1014.09 1014.09 1013.53 1013.21 1013.17 1013.57 1013.85 1013.93 1013.93 1013.85 1013.77 1013.89 1014.05 1014.29 1014.49 1014.73 1014.77 1014.81 1014.81 1014.81 1014.93 1015.05 1015.21 1015.33 1015.37 1015.33 1015.29 1015.25 1015.33 1015.33
1003.29 1003.45 1003.53 1003.61 1003.65 1003.77 1003.97 1004.45 1004.57 1004.49 1004.57 1004.69 1004.89 1005.05 1005.29 1005.49 1005.69 1005.81 1006.01 1006.13 1006.13 1006.29 1006.69 1006.97 1007.45 1008.01 1008.65 1009.29 1010.05 1011.53 1012.53 1013.09 1013.29 1012.97 1012.77 1012.81 1012.97 1013.25 1013.41 1013.57 1013.57 1013.61 1013.57 1013.49 1013.53 1013.77 1014.09 1014.29 1014.45 1014.45 1014.45 1014.45 1014.53 1014.65 1014.77 1014.89 1014.93 1015.05 1015.05 1015.01 1014.97 1014.97 1014.97
1003.25 1003.49 1003.45 1003.37 1003.53 1003.77 1004.05 1003.97 1004.01 1004.21 1004.29 1004.41 1004.53 1004.53 1004.73 1004.77 1004.85 1005.09 1005.33 1005.57 1005.61 1005.85 1006.25 1006.69 1007.25 1007.89 1008.53 1009.33 1010.69 1011.93 1012.21 1012.33 1012.49 1012.53 1012.41 1012.37 1012.49 1012.89 1013.17 1013.25 1013.29 1013.25 1013.17 1013.17 1013.37 1013.49 1013.69 1013.93 1014.05 1014.05 1014.09 1014.05 1014.17 1014.25 1014.41 1014.57 1014.73 1014.85 1014.85 1014.77 1014.65 1014.65 1014.73
1003.49 1003.45 1003.33 1003.41 1003.25 1003.41 1003.57 1003.81 1003.89 1003.93 1004.01 1003.93 1004.01 1004.37 1004.45 1004.61 1004.77 1004.93 1005.09 1005.17 1005.41 1005.69 1005.97 1006.25 1007.05 1007.93 1008.97 1010.37 1011.77 1012.57 1012.49 1012.53 1012.09 1012.41 1013.29 1013.17 1012.77 1012.85 1012.97 1012.97 1012.93 1012.97 1013.01 1013.09 1013.17 1013.21 1013.29 1013.37 1013.57 1013.77 1013.85 1013.81 1013.89 1014.01 1014.21 1014.45 1014.57 1014.53 1014.49 1014.45 1014.41 1014.45 1014.49
1003.09 1003.01 1002.97 1003.01 1003.13 1003.21 1003.21 1003.21 1003.33 1003.49 1003.57 1003.77 1003.97 1004.13 1004.37 1004.57 1004.73 1004.81 1004.93 1005.01 1005.09 1005.45 1005.61 1006.29 1007.21 1008.49 1009.85 1010.89 1011.45 1011.45 1011.61 1011.57 1011.69 1012.77 1013.57 1013.77 1013.37 1012.93 1012.77 1012.81 1012.85 1012.93 1013.05 1013.09 1013.09 1013.13 1013.17 1013.25 1013.37 1013.41 1013.37 1013.49 1013.69 1013.93 1014.09 1014.17 1014.09 1014.01 1013.93 1013.93 1014.01 1014.09 1014.21
1002.57 1002.61 1002.53 1002.65 1002.93 1003.05 1003.05 1003.13 1003.13 1003.29 1003.53 1003.61 1003.73 1003.81 1003.97 1004.09 1004.13 1004.29 1004.49 1004.69 1004.97 1005.25 1005.45 1006.21 1007.65 1008.93 1009.37 1009.57 1009.69 1009.93 1009.93 1010.37 1011.61 1012.81 1012.89 1013.09 1013.29 1012.93 1012.69 1012.65 1012.73 1012.89 1013.01 1013.05 1013.09 1013.13 1013.09 1013.17 1013.29 1013.25 1013.17 1013.25 1013.41 1013.57 1013.65 1013.65 1013.61 1013.49 1013.57 1013.61 1013.57 1013.69 1013.89
1002.41 1002.49 1002.57 1002.69 1002.81 1002.97 1003.21 1003.33 1003.45 1003.57 1003.61 1003.61 1003.65 1003.69 1003.81 1003.93 1004.01 1004.29 1004.57 1004.49 1004.69 1004.81 1005.45 1006.61 1007.77 1008.49 1008.93 1009.33 1009.53 1009.73 1010.17 1011.17 1012.13 1012.81 1012.97 1013.13 1012.97 1012.77 1012.37 1012.33 1012.57 1012.81 1012.93 1012.97 1013.05 1012.97 1012.97 1013.09 1013.01 1012.89 1012.89 1012.97 1013.09 1013.17 1013.17 1013.25 1013.13 1013.17 1013.21 1013.25 1013.25 1013.29 1013.49
1001.93 1002.09 1002.13 1002.41 1002.77 1002.93 1003.01 1003.05 1003.13 1003.25 1003.33 1003.45 1003.45 1003.57 1003.41 1003.41 1003.89 1004.25 1004.09 1004.29 1004.21 1004.97 1006.01 1006.97 1007.61 1008.05 1008.49 1008.81 1009.33 1010.05 1010.81 1011.45 1012.17 1012.01 1011.73 1011.65 1012.05 1012.09 1011.93 1012.01 1012.25 1012.49 1012.69 1012.73 1012.57 1012.69 1012.89 1012.77 1012.77 1012.73 1012.69 1012.81 1012.93 1012.97 1012.93 1012.97 1012.77 1012.85 1012.85 1012.85 1012.89 1012.97 1013.21
1001.69 1001.85 1002.21 1002.41 1002.53 1002.61 1002.65 1002.89 1003.09 1003.09 1003.01 1002.89 1002.81 1002.81 1002.85 1003.17 1003.53 1003.61 1003.81 1004.37 1004.97 1005.65 1006.25 1006.93 1007.81 1008.45 1009.21 1009.85 1010.41 1010.85 1010.65 1010.57 1010.69 1010.85 1010.89 1011.09 1011.33 1011.45 1011.33 1011.57 1011.73 1011.81 1011.97 1012.13 1012.29 1012.45 1012.45 1012.45 1012.45 1012.37 1012.49 1012.49 1012.57 1012.61 1012.57 1012.61 1012.41 1012.45 1012.49 1012.57 1012.65 1012.81 1013.13
1001.93 1002.13 1001.93 1002.01 1002.13 1002.05 1002.05 1002.17 1002.21 1002.49 1002.89 1002.81 1002.61 1002.65 1002.93 1003.21 1003.21 1003.53 1003.89 1004.21 1004.89 1005.53 1006.37 1007.17 1007.85 1008.17 1008.29 1008.49 1008.61 1008.89 1009.25 1009.73 1010.45 1010.33 1010.29 1010.57 1010.89 1010.97 1010.93 1011.09 1011.21 1011.45 1011.57 1011.73 1011.81 1011.97 1012.01 1012.01 1012.13 1012.05 1012.01 1012.09 1012.17 1012.37 1012.37 1012.25 1012.09 1012.21 1012.33 1012.45 1012.57 1012.69 1012.93
1001.37 1001.29 1001.33 1001.17 1001.01 1001.01 1001.17 1001.53 1001.65 1001.85 1001.97 1002.33 1002.65 1002.73 1002.73 1002.89 1003.01 1003.53 1004.05 1004.21 1004.73 1005.37 1005.89 1006.49 1006.97 1007.33 1007.49 1007.45 1007.45 1007.81 1008.33 1009.01 1009.53 1009.53 1009.69 1010.17 1010.53 1010.57 1010.49 1010.65 1010.77 1010.93 1010.97 1011.21 1011.33 1011.37 1011.49 1011.61 1011.61 1011.65 1011.65 1011.61 1011.89 1012.21 1012.33 1012.09 1011.97 1012.05 1012.13 1012.17 1012.33 1012.41 1012.73
1000.45 1000.61 1000.45 1000.49 1000.53 1000.49 1000.65 1001.01 1001.37 1001.85 1002.25 1002.25 1002.25 1002.41 1002.49 1002.61 1003.01 1003.49 1003.89 1004.29 1004.73 1005.09 1005.65 1006.13 1006.61 1006.81 1006.81 1006.89 1007.09 1007.85 1008.05 1008.01 1008.41 1008.81 1009.09 1009.57 1009.97 1010.01 1009.93 1010.05 1010.21 1010.33 1010.53 1011.05 1011.13 1011.29 1011.37 1011.29 1011.25 1011.13 1011.25 1011.45 1011.73 1012.01 1012.13 1012.01 1011.77 1011.81 1011.85 1011.97 1012.05 1012.37 1012.65
999.81 999.97 1000.29 1000.49 1001.01 1000.93 1000.97 1001.21 1001.77 1001.97 1001.81 1001.81 1001.93 1001.97 1002.25 1002.57 1003.05 1003.57 1004.05 1004.41 1004.73 1005.05 1005.53 1005.89 1006.29 1006.45 1006.77 1007.05 1007.13 1007.25 1007.13 1007.37 1007.97 1009.05 1009.17 1009.09 1009.29 1009.17 1009.09 1009.21 1009.49 1009.81 1010.13 1010.65 1010.81 1011.01 1010.89 1010.81 1010.93 1010.93 1011.01 1011.25 1011.53 1011.61 1011.77 1011.65 1011.45 1011.53 1011.65 1011.77 1011.97 1012.21 1012.41
999.97 1000.01 1000.17 1000.13 1000.25 1000.57 1000.97 1000.89 1001.05 1001.37 1001.77 1001.85 1002.05 1002.17 1002.21 1002.45 1002.89 1003.49 1004.01 1004.37 1004.65 1004.93 1005.45 1005.81 1005.89 1005.85 1005.81 1005.77 1005.77 1006.61 1007.01 1007.25 1008.25 1009.05 1008.57 1008.41 1008.49 1008.53 1008.73 1009.01 1009.21 1009.29 1009.81 1010.17 1010.29 1010.33 1010.37 1010.57 1010.73 1010.81 1010.89 1010.89 1010.97 1011.05 1011.33 1011.45 1011.37 1011.37 1011.49 1011.69 1011.97 1012.17 1012.29
1000.49 1000.61 1000.73 1001.01 1001.17 1000.85 1000.73 1001.01 1001.41 1001.93 1002.13 1002.05 1001.85 1001.93 1002.09 1002.29 1002.69 1003.17 1003.69 1004.01 1004.33 1004.77 1004.93 1004.81 1004.57 1004.37 1004.77 1005.45 1005.93 1006.69 1007.21 1007.57 1008.37 1008.17 1007.97 1008.09 1007.97 1008.05 1008.29 1008.45 1008.97 1009.45 1009.73 1009.89 1010.01 1010.17 1010.29 1010.33 1010.49 1010.65 1010.61 1010.61 1010.77 1011.09 1011.33 1011.57 1011.49 1011.61 1011.77 1011.89 1012.01 1012.09 1012.21
1000.37 1000.61 1000.65 1000.97 1000.77 1001.01 1000.81 1001.13 1001.09 1000.97 1001.25 1001.69 1001.93 1002.09 1002.09 1002.33 1002.69 1003.17 1003.33 1003.69 1004.05 1004.17 1003.69 1003.45 1003.81 1004.41 1004.97 1005.65 1006.13 1006.49 1006.69 1006.81 1007.01 1007.37 1007.45 1007.65 1007.81 1008.01 1008.25 1008.57 1009.01 1009.29 1009.61 1009.81 1009.93 1010.09 1010.17 1010.25 1010.33 1010.37 1010.37 1010.65 1010.81 1010.81 1011.09 1011.33 1011.45 1011.61 1011.85 1011.93 1012.05 1012.13 1012.21
1001.05 1001.29 1001.61 1001.37 1001.37 1001.13 1000.81 1001.37 1001.69 1001.93 1001.89 1001.93 1002.09 1002.05 1002.13 1002.17 1002.57 1002.77 1003.21 1003.53 1003.57 1002.73 1002.77 1003.49 1003.97 1004.45 1005.01 1005.41 1005.73 1005.97 1006.17 1006.33 1006.89 1007.85 1008.77 1008.77 1008.77 1008.77 1008.69 1008.73 1008.85 1009.17 1009.49 1009.69 1009.85 1010.01 1010.09 1010.13 1010.29 1010.37 1010.41 1010.57 1011.17 1011.53 1012.05 1012.09 1011.49 1011.65 1011.93 1012.01 1012.05 1012.13 1012.25
1001.17 1001.01 1001.01 1001.17 1001.25 1001.65 1001.69 1001.41 1001.53 1001.81 1001.77 1002.09 1002.13 1002.05 1002.09 1002.21 1002.45 1002.81 1003.01 1003.33 1002.41 1002.45 1002.93 1003.33 1003.97 1004.65 1005.17 1005.57 1005.85 1005.97 1006.17 1006.65 1007.45 1008.57 1008.45 1008.45 1008.57 1008.53 1008.69 1008.81 1008.89 1009.17 1009.49 1009.73 1009.81 1009.81 1009.93 1010.13 1010.21 1010.29 1010.41 1010.81 1010.89 1011.57 1011.85 1011.65 1011.53 1011.57 1011.69 1011.89 1012.01 1012.17 1012.33
1002.21 1001.73 1001.65 1001.89 1001.93 1001.97 1002.25 1002.13 1002.33 1002.45 1002.49 1002.61 1002.73 1002.69 1002.61 1002.49 1002.49 1002.73 1003.01 1002.49 1002.57 1002.93 1003.33 1003.89 1004.41 1004.89 1005.29 1005.57 1005.85 1006.29 1006.89 1007.33 1008.01 1008.21 1008.29 1008.49 1008.53 1008.49 1008.57 1008.77 1009.05 1009.37 1009.61 1009.65 1009.61 1009.77 1010.13 1010.73 1010.69 1010.33 1010.37 1010.53 1010.89 1011.29 1011.41 1011.49 1011.49 1011.69 1011.73 1011.89 1012.09 1012.29 1012.41
1003.01 1002.73 1002.33 1001.97 1002.09 1002.25 1002.25 1002.09 1002.09 1002.41 1002.53 1002.49 1002.49 1002.61 1002.77 1002.93 1003.25 1003.37 1003.57 1003.73 1003.41 1003.69 1003.97 1004.33 1004.69 1005.05 1005.45 1005.69 1006.05 1006.49 1006.61 1006.89 1007.53 1008.17 1008.21 1008.01 1007.89 1007.93 1008.13 1008.65 1009.13 1009.69 1009.77 1009.65 1009.73 1009.97 1010.53 1011.05 1010.77 1010.33 1010.41 1010.61 1010.81 1011.05 1011.29 1011.53 1011.69 1011.81 1012.01 1012.05 1012.25 1012.53 1012.73
1003.01 1003.01 1002.89 1002.97 1002.77 1002.57 1002.29 1002.25 1002.33 1002.45 1002.53 1002.65 1002.65 1002.77 1002.93 1003.05 1003.17 1003.57 1003.77 1003.61 1003.73 1003.89 1004.21 1004.57 1005.05 1005.45 1005.61 1005.81 1006.09 1006.53 1006.77 1007.33 1007.65 1007.93 1007.85 1007.65 1007.57 1007.73 1007.97 1008.45 1009.01 1009.49 1009.69 1009.65 1009.49 1009.53 1009.89 1010.37 1010.41 1010.29 1010.45 1010.57 1010.77 1010.85 1011.21 1011.65 1011.85 1011.97 1012.09 1012.25 1012.53 1012.73 1012.89
1003.61 1003.53 1003.29 1002.97 1002.85 1002.65 1002.53 1002.41 1002.33 1002.45 1002.69 1003.13 1003.17 1003.05 1002.97 1002.93 1003.01 1003.25 1003.45 1003.61 1003.73 1003.97 1004.25 1004.69 1005.01 1005.41 1005.77 1006.33 1006.89 1007.41 1007.69 1007.85 1008.01 1008.05 1007.77 1007.65 1007.85 1007.85 1007.93 1008.33 1009.01 1009.25 1009.37 1009.33 1009.29 1009.49 1009.53 1009.77 1010.05 1010.25 1010.49 1010.57 1010.73 1011.05 1011.41 1011.65 1012.01 1012.17 1012.33 1012.53 1012.73 1012.85 1012.89
1004.45 1004.05 1003.77 1003.53 1003.25 1002.81 1002.53 1002.25 1002.25 1002.89 1003.45 1003.53 1003.17 1002.97 1002.89 1002.93 1003.05 1003.09 1003.13 1003.29 1003.45 1003.77 1004.25 1004.73 1005.05 1005.37 1005.85 1006.13 1006.17 1006.61 1007.09 1007.85 1008.41 1008.93 1008.49 1007.93 1007.41 1007.69 1008.33 1008.93 1009.29 1009.45 1009.37 1009.21 1009.13 1009.29 1009.61 1009.81 1010.01 1010.17 1010.29 1010.45 1010.89 1011.33 1011.61 1011.89 1012.05 1012.33 1012.41 1012.61 1012.69 1012.81 1012.89
1003.93 1004.13 1003.41 1002.73 1002.05 1002.01 1002.13 1002.53 1003.09 1003.45 1003.45 1003.41 1003.25 1003.13 1003.13 1003.25 1003.25 1003.17 1003.21 1003.29 1003.41 1003.73 1004.33 1004.89 1005.13 1005.53 1005.77 1005.93 1005.93 1006.17 1006.25 1006.61 1007.29 1008.29 1008.41 1008.25 1008.65 1009.37 1009.93 1009.73 1009.81 1009.85 1009.85 1009.93 1009.85 1009.45 1009.29 1009.45 1009.73 1009.89 1010.09 1010.25 1010.65 1011.01 1011.49 1011.97 1012.09 1012.13 1012.37 1012.61 1012.85 1012.77 1012.69
1003.09 1003.57 1003.25 1003.33 1002.77 1002.61 1002.81 1003.09 1003.21 1003.29 1003.41 1003.57 1003.41 1003.25 1003.29 1003.37 1003.41 1003.37 1003.37 1003.45 1003.73 1004.05 1004.69 1005.21 1005.61 1005.93 1006.33 1006.45 1006.49 1006.73 1007.01 1007.41 1007.73 1007.61 1007.89 1008.29 1008.69 1009.33 1010.53 1011.49 1011.57 1011.05 1010.09 1009.73 1010.09 1009.93 1009.61 1009.45 1009.49 1009.69 1010.09 1010.53 1011.21 1011.33 1011.05 1011.13 1011.77 1012.25 1012.49 1012.77 1012.97 1013.13 1013.13
1003.21 1003.29 1003.05 1002.73 1002.57 1002.81 1002.93 1003.01 1003.05 1003.21 1003.53 1003.61 1003.45 1003.45 1003.49 1003.65 1003.69 1003.61 1003.57 1003.57 1003.81 1004.13 1004.57 1004.89 1005.33 1005.81 1006.25 1006.53 1006.77 1006.97 1007.21 1007.45 1007.61 1007.97 1008.45 1008.81 1009.13 1009.69 1009.97 1010.69 1011.21 1011.09 1010.85 1010.77 1010.65 1010.21 1009.85 1009.73 1009.81 1010.01 1010.13 1010.17 1010.81 1011.77 1011.81 1011.93 1012.21 1012.41 1012.65 1012.85 1012.97 1013.01 1013.13
1003.09 1003.05 1002.97 1003.01 1002.93 1002.85 1002.93 1003.09 1003.17 1003.29 1003.61 1003.65 1003.65 1003.77 1003.77 1003.81 1003.81 1003.77 1003.85 1003.85 1004.01 1004.21 1004.65 1005.05 1005.41 1005.73 1005.81 1006.09 1006.73 1007.25 1007.65 1007.77 1007.57 1007.69 1008.25 1008.81 1009.33 1009.73 1009.93 1009.85 1009.77 1010.37 1010.85 1010.93 1010.65 1010.45 1010.29 1010.09 1010.09 1010.21 1010.41 1010.53 1010.73 1011.29 1012.05 1012.25 1012.25 1012.33 1012.49 1012.65 1012.77 1012.77 1012.81
Wind_Speed
14 14 14 14 14 15 16 17 17 16 16 15 15 16 16 14 14 13 13 13 14 14 12 12 12 11 12 10 10 9 9 10 9 9 8 8 8 8 7 6 7 7 6 7 6 6 6 5 5 4 3 4 4 3 3 3 2 3 2 2 2 2 3
14 15 15 15 15 16 16 17 16 15 14 15 15 17 15 15 14 14 15 15 16 17 15 14 13 13 13 12 10 10 10 11 10 8 8 7 6 6 7 8 8 7 6 6 6 5 4 5 4 4 4 3 4 3 3 3 3 3 3 3 2 3 2
15 15 15 15 16 15 15 14 14 15 16 15 14 14 15 17 17 19 17 16 17 16 14 15 15 14 13 12 11 11 11 10 9 9 9 8 7 7 6 7 7 7 7 6 6 6 4 5 4 4 4 4 4 3 3 3 3 3 3 2 2 3 3
15 16 17 18 17 16 17 18 19 17 16 17 17 18 18 19 18 17 17 18 19 17 18 17 16 14 13 13 13 12 11 11 11 10 9 8 9 7 7 5 6 5 6 6 6 5 5 4 4 4 4 4 4 4 3 4 3 3 4 3 3 4 4
15 15 14 13 14 13 13 14 16 17 18 18 18 18 19 19 17 15 14 15 17 19 20 18 15 13 12 13 11 10 12 12 10 9 9 8 8 7 7 7 6 6 7 5 4 4 4 4 4 3 3 4 4 3 4 3 4 4 3 3 4 4 5
15 14 14 14 14 14 15 17 18 19 19 18 18 17 16 16 14 16 17 16 16 15 12 11 13 13 14 13 12 11 10 10 10 9 9 9 8 7 7 7 7 6 5 7 5 4 4 4 4 4 4 4 5 4 3 3 4 3 4 3 4 5 5
15 15 14 14 15 15 16 17 18 18 18 18 18 17 16 15 17 18 16 16 16 16 16 16 16 14 13 12 12 13 13 11 10 10 9 8 8 8 7 6 7 7 7 4 5 5 4 5 5 5 5 5 4 4 4 4 4 4 4 4 4 5 4
15 15 15 16 16 15 16 16 17 17 16 14 13 13 14 15 15 15 15 16 16 15 14 16 15 15 14 13 12 14 13 12 10 9 8 9 7 7 7 6 7 7 5 6 6 5 6 6 5 5 5 4 4 4 4 4 4 4 3 4 4 4 4
15 17 17 15 15 14 15 16 16 17 19 18 18 18 18 16 16 16 18 17 15 16 17 17 17 14 12 13 13 14 13 11 9 8 7 6 4 4 5 6 7 6 7 7 6 5 6 6 6 6 5 4 4 4 4 4 4 5 4 5 4 5 5
14 13 12 13 14 13 12 12 13 12 13 15 15 14 15 16 16 16 15 15 15 18 18 16 14 13 13 13 14 13 12 11 7 7 6 4 1 3 5 7 7 6 7 7 6 7 6 5 6 5 5 5 4 4 4 4 5 5 4 5 5 6 6
13 13 12 12 12 12 10 10 11 14 15 15 15 16 15 16 16 15 16 15 16 17 18 16 13 13 13 14 14 13 11 10 13 10 6 6 6 9 10 9 8 6 7 7 6 6 6 5 4 5 4 6 5 5 5 6 6 5 6 6 5 6 5
11 11 13 14 14 10 11 14 14 15 15 15 16 15 16 16 16 16 16 17 17 17 15 15 13 14 14 13 13 11 11 15 14 8 6 11 12 13 11 9 8 7 7 7 7 6 6 6 5 6 6 6 6 5 6 5 6 6 6 6 5 5 5
12 13 14 15 14 13 11 10 14 16 17 16 16 16 15 16 17 16 16 17 17 16 15 15 14 14 13 13 12 10 15 16 13 13 16 14 12 9 8 9 8 8 8 7 7 7 6 6 6 6 6 7 5 6 6 6 6 6 6 6 6 5 5
10 9 9 11 11 12 14 15 15 15 16 16 16 16 16 16 17 18 18 18 17 16 14 12 13 13 13 11 9 14 17 16 13 14 14 12 10 9 9 8 8 8 7 6 7 7 7 7 8 7 6 7 6 6 6 5 5 5 6 6 6 5 5
11 13 13 14 14 13 14 14 14 15 16 17 17 16 17 15 15 14 13 13 13 13 14 13 12 11 8 7 12 12 13 12 13 11 5 8 6 8 9 9 8 7 7 6 6 6 7 6 7 6 6 5 5 5 5 5 7 6 6 6 6 5 6
13 14 14 15 13 12 13 14 14 15 15 15 15 16 15 14 13 14 15 15 14 14 13 10 10 8 13 17 17 16 16 15 9 3 3 9 9 9 9 8 7 7 7 7 7 7 6 6 6 6 7 6 6 5 5 6 5 8 12 10 7 6 6
14 14 13 11 10 11 12 12 12 12 12 14 15 15 15 15 15 14 15 13 13 13 11 10 9 15 18 18 18 18 17 14 12 8 13 13 10 10 9 9 7 7 7 7 7 7 7 6 7 6 6 7 7 7 7 6 6 12 12 13 14 8 6
11 12 11 10 10 8 8 8 7 8 10 10 11 12 12 12 13 12 13 13 13 13 9 9 13 15 14 15 16 16 12 11 10 9 10 12 13 11 9 7 7 8 8 8 8 8 6 7 8 8 7 7 7 7 7 7 10 13 13 14 15 12 7
12 11 11 10 8 8 8 9 9 8 7 6 8 10 12 12 10 11 13 13 14 6 9 12 14 15 16 16 16 14 12 13 14 17 17 16 13 11 8 8 8 9 8 10 9 6 7 9 8 8 7 7 7 8 8 7 10 13 13 14 14 13 10
8 8 6 5 6 7 6 4 4 6 8 10 10 11 9 7 10 10 7 3 4 8 10 13 11 11 11 9 9 10 13 16 17 16 14 12 11 11 10 9 10 10 10 9 7 8 9 9 9 8 6 7 8 8 7 7 10 12 13 13 13 11 8
5 5 7 8 7 7 7 9 9 8 6 8 10 7 6 7 9 6 7 8 9 9 11 12 14 15 16 18 18 18 16 15 15 16 13 12 12 10 10 10 10 10 10 9 10 10 10 10 8 8 7 7 7 7 7 7 11 11 12 11 11 11 9
7 7 7 7 8 7 6 6 8 9 10 5 3 5 7 9 6 6 6 9 11 12 14 15 16 16 16 18 19 18 17 17 17 16 14 12 11 10 10 10 11 12 11 9 9 8 6 6 6 7 8 8 5 4 6 7 11 11 11 12 12 12 7
11 9 8 6 6 7 7 5 5 5 3 4 6 7 9 6 7 9 10 10 11 13 14 15 15 16 17 18 15 14 15 17 17 14 13 11 10 11 11 12 12 12 9 9 9 8 8 8 8 8 7 5 4 5 6 7 10 12 12 12 12 7 5
6 6 5 4 3 3 4 4 3 4 6 5 7 8 6 7 9 8 8 9 10 13 13 14 14 14 14 14 16 19 18 17 14 10 11 10 11 12 13 13 11 11 9 10 10 9 9 8 7 5 4 4 4 7 7 8 10 11 11 11 9 8 6
7 7 8 8 10 7 5 6 6 5 4 4 5 5 7 9 11 11 10 10 11 12 13 13 13 15 19 20 19 16 14 13 10 12 14 11 11 12 12 12 13 12 7 9 8 9 7 4 6 4 4 5 6 8 8 5 7 7 8 7 8 6 4
6 5 4 3 1 2 4 4 5 3 4 6 8 6 9 11 12 12 12 12 11 13 15 17 18 19 16 15 15 13 9 9 13 17 14 11 12 12 12 11 8 6 7 7 7 7 5 5 5 5 6 5 5 2 2 5 4 0 3 6 7 6 3
2 3 7 5 6 4 5 4 5 8 9 8 7 7 9 11 12 12 12 12 13 15 18 17 15 13 13 12 12 12 13 14 16 16 12 10 11 7 6 5 5 4 5 6 6 5 5 5 5 5 4 3 3 4 3 1 1 2 6 5 5 4 5
3 3 3 3 3 4 4 4 1 2 4 5 9 8 9 11 12 12 11 12 15 19 12 10 12 12 12 13 13 13 12 12 11 3 5 9 6 4 4 3 4 4 5 5 5 5 6 5 4 4 4 3 1 6 4 2 4 4 4 5 6 5 4
3 1 2 1 1 0 2 3 4 6 4 4 5 6 7 9 11 10 11 13 18 9 9 11 11 11 10 10 11 11 11 8 9 4 10 5 2 2 2 2 3 4 4 5 5 7 7 6 6 5 4 3 4 3 5 1 3 6 4 4 5 5 4
1 0 0 1 0 2 1 1 1 0 1 0 1 1 2 6 10 9 11 16 3 5 6 8 8 8 10 10 10 7 7 10 6 10 2 2 3 3 3 3 2 3 5 6 8 6 5 2 2 5 4 5 4 3 2 1 2 4 5 4 4 3 2
6 6 3 0 2 2 2 3 3 3 3 3 3 1 1 2 3 3 3 4 4 4 7 8 8 8 8 8 8 9 10 9 7 3 2 4 6 5 4 3 3 4 4 5 5 7 7 6 5 5 5 3 5 5 1 2 2 2 4 6 5 4 5
6 4 3 3 1 0 1 2 2 2 3 2 1 1 2 3 3 1 1 3 4 5 6 7 7 7 6 5 6 7 7 8 8 7 7 7 4 4 4 6 7 7 6 6 6 7 8 7 6 5 4 5 4 4 3 3 2 2 2 4 5 4 4
4 4 4 3 2 1 2 3 3 2 3 2 3 3 3 4 5 5 6 6 6 6 7 7 7 7 6 6 8 7 6 5 4 2 4 4 4 6 6 3 4 5 6 5 6 5 4 4 4 5 5 4 4 2 2 2 2 2 1 2 2 1 1
7 6 4 3 1 3 2 2 2 1 2 4 3 4 4 5 5 5 5 7 7 7 8 7 7 8 8 10 10 9 9 7 3 4 2 2 4 6 5 3 0 5 5 6 6 6 5 5 5 6 6 5 4 3 2 3 3 3 4 3 2 2 2
4 6 5 2 2 2 1 2 3 4 5 4 3 5 7 7 6 6 7 6 7 8 8 8 7 7 8 8 7 7 7 6 5 5 4 6 8 7 6 3 3 1 2 4 3 1 4 8 6 5 5 6 6 6 4 4 5 4 4 3 3 2 2
3 6 7 6 1 2 3 3 5 6 6 4 5 8 9 9 8 8 9 10 10 12 11 10 9 8 6 4 5 5 6 6 6 8 7 7 7 6 5 7 5 3 1 2 6 6 4 4 4 6 6 6 3 1 4 5 2 8 10 8 7 5 4
10 10 6 2 3 3 4 5 6 7 7 7 8 9 10 10 9 10 10 10 10 12 13 11 11 9 7 6 6 6 7 7 6 5 5 6 4 5 7 5 3 8 10 6 5 5 8 11 12 10 6 7 5 4 9 11 10 9 8 7 6 6 5
2 1 1 1 2 3 5 6 7 8 10 8 9 10 10 10 8 9 9 10 11 11 10 9 8 7 6 7 6 7 6 5 7 7 6 7 7 6 7 7 7 4 7 8 8 9 10 10 11 11 10 11 11 8 4 6 8 9 7 6 5 4 4
Wind_Direction
185 186 190 189 190 190 190 191 189 187 188 188 187 187 187 187 188 186 191 192 196 198 194 187 189 187 186 182 178 178 175 171 173 175 179 182 178 169 169 175 166 172 168 166 183 171 180 176 177 192 185 196 181 191 207 210 218 236 239 234 237 239 238
190 191 190 191 193 194 193 191 189 188 190 192 192 190 188 189 188 190 194 194 198 198 191 190 188 190 185 180 178 178 175 178 176 175 175 174 171 168 170 171 167 172 174 177 171 188 174 191 177 178 186 187 193 203 213 209 209 232 242 241 235 269 272
193 191 192 192 194 193 190 190 191 191 191 193 193 191 192 192 192 194 192 193 197 197 193 193 192 189 185 178 176 184 180 173 173 173 172 171 171 173 179 168 171 165 182 177 174 179 189 189 190 181 172 181 200 210 226 224 231 238 252 245 237 255 262
192 193 195 194 194 191 188 188 189 192 195 193 192 193 196 197 197 195 193 194 194 194 195 197 190 189 184 180 182 180 181 178 175 175 171 166 170 173 166 176 169 168 163 178 186 177 189 185 187 189 181 179 198 209 207 218 226 226 238 233 243 240 244
195 196 192 193 195 190 191 191 193 194 195 196 197 198 198 199 195 194 197 199 197 198 199 193 190 188 187 183 183 181 181 178 176 174 166 168 166 163 168 173 175 172 178 180 181 180 184 187 191 188 188 184 197 200 208 208 224 228 238 219 235 241 239
191 193 194 194 193 193 192 193 194 195 197 196 197 199 202 199 196 198 199 197 201 204 198 192 193 190 188 190 182 182 178 181 174 171 165 166 161 166 173 177 176 179 172 188 180 190 187 190 200 199 193 193 190 194 197 205 227 222 235 220 230 239 243
193 193 194 195 194 194 194 194 197 199 199 200 198 199 196 194 197 201 198 199 200 197 195 195 195 191 194 185 188 178 180 179 175 173 164 160 163 166 180 181 181 181 188 171 187 183 187 197 205 202 199 191 189 187 200 212 237 237 230 225 238 244 244
191 194 198 196 196 195 194 195 197 199 199 202 198 198 198 200 202 202 199 201 200 199 198 197 195 195 192 190 186 184 179 178 176 166 158 158 164 174 182 187 187 189 172 181 203 181 197 201 205 200 192 186 193 197 208 218 232 246 218 227 231 253 237
197 195 195 197 198 196 195 194 192 194 196 195 196 199 198 199 200 201 202 200 199 198 202 200 198 193 187 188 189 188 179 170 166 156 151 144 151 177 195 203 201 189 181 194 199 195 194 201 199 196 188 189 200 204 210 218 230 237 223 232 232 243 253
197 201 204 200 199 198 191 188 194 194 196 200 202 200 200 201 203 203 203 201 199 203 204 202 197 190 188 190 192 185 172 164 134 94 69 83 165 216 227 215 211 195 189 195 187 188 205 201 201 195 189 197 208 212 224 233 233 238 225 228 225 229 240
195 197 196 202 205 198 184 176 183 194 199 200 200 202 201 202 204 203 202 201 202 206 205 201 194 189 190 191 189 181 161 113 86 93 145 187 190 214 220 218 208 198 194 189 191 196 195 211 203 200 195 203 212 218 227 233 234 235 239 234 226 226 232
192 188 194 200 204 192 181 186 190 195 198 200 202 201 201 203 203 204 204 204 204 205 201 201 193 193 191 188 186 172 126 109 114 138 206 214 203 210 210 209 208 200 199 190 196 198 199 203 204 201 207 211 213 214 225 229 225 226 236 243 236 226 227
187 188 192 196 201 196 191 191 196 196 198 200 200 201 201 201 203 204 204 207 206 205 201 199 193 190 189 187 176 129 110 117 144 176 205 209 211 210 206 208 207 203 202 195 195 194 199 207 205 212 205 215 210 216 219 225 229 230 235 236 230 220 219
183 187 195 200 201 195 194 195 197 199 200 203 204 204 204 203 203 203 203 206 205 202 199 195 193 190 187 177 138 113 129 133 167 196 212 208 200 201 207 208 208 210 210 199 201 200 201 201 205 211 203 211 208 218 218 224 231 231 230 230 227 219 221
180 190 196 199 202 199 197 198 201 201 203 206 205 204 206 206 208 209 211 213 208 203 202 194 188 184 163 106 90 112 119 150 186 198 225 254 214 206 210 208 209 212 212 210 211 212 211 208 203 200 204 215 214 223 218 213 222 218 215 220 232 224 228
188 194 197 200 201 200 201 205 203 204 204 205 205 207 207 208 208 207 206 207 204 202 201 179 179 138 99 107 128 143 153 173 182 109 242 264 242 225 215 209 207 212 217 218 217 214 211 206 202 200 201 207 218 218 214 217 218 219 215 212 216 220 224
193 196 200 202 199 201 206 209 211 209 206 207 206 206 206 207 208 206 209 208 204 203 192 171 128 115 133 142 150 152 168 164 129 176 220 236 246 233 214 208 205 212 220 223 220 216 212 204 204 207 206 205 211 217 218 220 221 222 219 221 224 220 217
190 194 195 198 201 201 207 213 216 214 215 215 214 213 211 211 211 205 208 207 204 202 171 135 125 139 141 145 153 162 149 119 131 204 231 244 241 233 217 204 202 212 218 220 220 219 208 205 211 209 208 212 217 223 224 223 225 223 222 223 226 223 218
190 190 193 193 190 198 202 207 210 210 214 213 213 212 214 212 208 210 209 204 209 162 123 126 139 143 148 153 153 149 118 125 176 211 222 223 224 225 211 204 205 211 214 219 216 201 201 213 211 215 213 214 219 229 232 231 230 225 226 228 230 227 217
186 186 180 184 193 195 206 202 205 214 214 214 215 215 215 205 209 217 212 198 91 120 135 137 133 123 118 106 96 104 133 167 200 217 220 220 219 217 209 203 209 211 214 217 210 205 210 215 216 216 212 215 218 228 233 232 239 232 232 235 235 233 213
161 162 173 178 193 205 205 202 206 213 217 218 216 209 184 192 200 183 160 151 143 134 133 129 128 136 144 149 159 163 169 181 208 220 217 213 215 212 209 210 214 214 216 213 211 210 211 212 215 220 221 223 220 225 237 242 244 241 241 242 237 230 212
180 166 174 187 181 202 198 205 206 203 215 214 183 193 193 203 181 159 143 134 142 147 146 149 151 157 159 166 171 171 175 185 205 211 208 208 211 209 211 214 214 217 217 216 220 219 216 218 213 221 227 228 218 221 245 254 252 245 239 231 225 219 209
164 181 181 189 180 195 204 201 206 212 171 165 178 182 202 176 151 147 146 151 152 155 158 157 163 169 174 177 172 165 188 197 204 207 200 196 201 209 211 215 220 222 214 216 218 211 210 215 213 219 224 224 200 209 238 253 253 243 236 227 224 208 189
154 160 174 170 207 231 200 205 189 182 183 170 183 191 166 151 148 145 148 153 154 158 166 169 172 172 173 169 168 184 197 196 195 194 218 203 207 210 212 215 220 222 205 208 212 210 214 213 219 215 207 201 206 211 222 239 248 240 233 229 211 188 176
161 167 171 161 164 173 197 188 175 172 167 157 192 187 156 150 146 146 161 164 168 167 166 176 176 176 181 182 180 182 199 190 168 201 224 210 211 215 217 215 216 218 193 209 211 216 209 197 202 209 199 205 211 216 213 239 256 230 219 197 177 174 164
121 127 126 92 49 157 156 136 111 113 160 187 202 179 159 155 155 161 166 177 167 174 183 187 190 188 181 172 170 179 178 143 166 211 217 215 216 216 217 217 216 208 190 207 203 204 185 187 181 188 206 205 210 171 207 240 250 114 154 164 170 172 146
108 141 147 158 158 137 133 148 161 172 191 202 188 174 165 156 158 171 176 171 179 190 196 193 186 177 172 165 163 169 173 173 185 207 217 219 227 226 226 206 202 184 188 196 183 172 171 167 177 183 187 163 146 171 202 225 155 91 118 124 135 148 151
84 73 39 79 113 121 142 147 204 220 208 184 186 180 171 166 170 178 174 178 193 206 189 172 174 169 165 167 167 169 173 170 176 147 292 270 261 231 202 173 159 176 190 171 164 168 173 174 162 164 178 175 48 31 36 301 131 132 129 138 134 140 157
0 12 113 109 132 229 140 172 199 220 216 189 192 185 179 176 175 176 181 190 209 185 163 168 159 158 157 152 162 172 167 142 104 161 239 240 195 150 138 130 156 174 174 169 171 172 168 160 167 164 166 123 135 169 223 160 128 141 135 133 127 140 161
335 359 10 320 120 181 166 164 139 86 19 7 329 310 257 198 186 180 186 211 149 126 133 135 142 143 154 160 163 152 93 92 143 226 237 144 123 116 115 139 151 178 184 180 175 165 130 95 168 148 160 207 188 157 163 134 88 133 130 138 133 145 173
334 325 315 182 154 152 135 153 150 138 142 155 169 189 339 342 318 245 214 31 93 108 125 133 137 143 152 159 149 126 140 153 159 143 154 139 135 134 141 140 145 189 210 175 140 110 124 203 200 186 197 180 173 178 161 119 113 109 138 138 151 172 186
345 336 344 340 339 350 93 113 114 130 143 138 109 80 39 42 67 93 130 130 103 116 116 118 116 119 132 144 147 148 133 124 132 146 161 162 170 146 140 159 180 191 185 173 160 158 167 173 184 180 163 186 177 173 170 134 116 113 133 140 134 133 139
308 309 306 290 262 194 116 133 110 133 159 109 50 75 74 84 92 118 119 118 125 115 121 116 121 119 116 87 63 51 59 69 78 114 172 156 141 139 155 166 188 186 179 180 171 171 166 158 166 170 177 181 176 137 127 122 140 170 147 87 98 101 79
315 308 307 271 221 160 132 102 112 114 76 90 113 107 96 96 97 108 120 135 141 135 122 122 122 125 121 117 123 127 126 119 147 249 231 150 112 103 93 70 157 203 203 189 179 168 175 178 174 178 179 171 141 132 153 191 196 203 183 171 141 116 64
287 286 281 287 43 58 89 110 104 107 122 130 116 103 98 96 95 98 103 114 124 125 116 117 122 120 132 137 144 151 152 148 137 129 105 75 56 54 42 16 344 61 64 16 1 304 193 175 178 174 165 155 158 158 188 200 218 218 159 137 122 129 122
280 263 255 252 209 132 120 121 132 130 125 116 111 109 105 99 95 90 90 92 93 99 100 98 94 92 88 85 88 95 86 97 117 107 101 104 116 93 72 54 54 7 57 67 6 21 26 117 166 165 143 114 74 109 169 202 179 119 116 124 127 122 103
217 228 226 226 137 144 133 139 135 127 122 126 122 115 109 106 108 104 98 95 97 100 104 106 101 102 102 105 115 115 113 109 94 93 80 68 94 152 159 146 69 54 51 46 48 55 73 90 99 103 107 125 122 73 71 97 103 109 124 127 139 144 149
228 265 292 269 227 175 145 136 139 134 134 134 128 124 122 117 106 99 99 97 96 88 84 85 85 90 108 107 106 98 101 106 134 135 171 194 204 181 170 158 130 75 42 44 41 46 60 80 90 94 98 112 124 125 85 83 96 102 99 103 105 104 124